Regional Weather Roundup
Issued by NWS

Home | Current Version | Previous Version | Text Only | Print | Product List | Glossary On
Versions: 1 2 3 4 5 6 7 8 9 10 11 12 13 14 15 16 17 18 19 20 21 22 23 24 25 26 27 28 29 30 31 32 33 34 35 36 37 38 39 40 41 42 43 44 45 46 47 48 49 50
000
ASUS44 KLIX 231713
RWRLA
LOUISIANA WEATHER ROUNDUP
NATIONAL WEATHER SERVICE NEW ORLEANS LA
1100 AM CST THU FEB 23 2017

NOTE: "FAIR" INDICATES FEW OR NO CLOUDS BELOW 12,000 FEET WITH NO
      SIGNIFICANT WEATHER AND/OR OBSTRUCTIONS TO VISIBILITY.
      SKY/WX - SKY CONDITION AND SIGNIFICANT WEATHER.
      TMP - AIR TEMPERATURE.    DP   - DEWPOINT TEMPERATURE.
      RH  - RELATIVE HUMIDITY.  PRES - PRESSURE.
      HX  - HEAT INDEX.         WCI  - WIND CHILL INDEX.

*  THESE STATIONS ARE NOT NWS OR FAA STATIONS AND ARE NOT UNDER
   NWS QUALITY CONTROL.

LAZ040-048-061>063-065-066-069-231800-
SOUTHEAST LOUISIANA

CITY           SKY/WX    TMP DP  RH WIND       PRES   REMARKS
N.O. AUDUBON   NOT AVBL
N.O. INTL ARPT MOSUNNY   73  61  65 S6        29.85F
N.O. LAKEFRONT SUNNY     69  63  81 N6        29.85F
N.O. DOWNTOWN*   N/A     75  60  59 VRB3      29.85F
RESERVE*       FAIR      75  62  63 SE7       29.85F
SLIDELL        SUNNY     74  60  61 S6        29.84F
BATON ROUGE    SUNNY     74  56  53 S5        29.84F
BOOTHVILLE     SUNNY     72  66  81 NE5       29.86S
BELLE CHASSE   MOSUNNY   73  63  70 E7        29.84F
BOGALUSA*      FAIR      75  60  58 SW3       29.86F
GALLIANO*      SUNNY     73  61  64 E3        29.85F
NEW ROADS*     FAIR      71  58  64 SE8       29.84F
GONZALES*      FAIR      72  59  64 S7        29.84F
HAMMOND*       SUNNY     73  57  56 S3        29.84F
HOUMA*         SUNNY     73  61  64 CALM      29.85F
PORT FOURCHON* SUNNY     70  63  78 E5        29.86S

$$

LAZ041-044-053-054-231800-
SOUTHWEST LOUISIANA

CITY           SKY/WX    TMP DP  RH WIND       PRES   REMARKS
LAKE CHARLES   SUNNY     73  58  59 S9        29.83S
LAFAYETTE      SUNNY     75  57  53 S7        29.84S
PATTERSON      SUNNY     74  59  59 S7        29.85F
SALT POINT       N/A     70  58  65 SE10      29.83F
NEW IBERIA     SUNNY     74  57  55 S7        29.85S
CHENAULT AIRPK MOSUNNY   68  61  77 S8        29.84S

$$

LAZ027-028-231800-
CENTRAL LOUISIANA

CITY           SKY/WX    TMP DP  RH WIND       PRES   REMARKS
FORT POLK      SUNNY     70  58  65 S13       29.82S
ALEXANDRIA INT SUNNY     70  58  65 S10       29.81F
ALEXANDRIA     SUNNY     74  57  55 S14       29.82F

$$

LAZ001-002-231800-
NORTHWEST LOUISIANA

CITY           SKY/WX    TMP DP  RH WIND       PRES   REMARKS
SHREVEPORT     SUNNY     75  53  46 S17       29.75F
BARKSDALE AFB  SUNNY     73  54  51 S18       29.76F
DTN SHREVEPORT SUNNY     73  52  47 S15G23    29.76F

$$

LAZ014-016-231800-
NORTHEAST LOUISIANA

CITY           SKY/WX    TMP DP  RH WIND       PRES   REMARKS
MONROE         SUNNY     71  56  58 S10       29.81F
TALLULAH       SUNNY     72  56  57 S12       29.82F

$$




USA.gov is the U.S. government's official web portal to all federal, state and local government web resources and services.